Crestview, FL

7:50 AM CDT on April 23, 2017 (GMT -0500)
Sikes

Weather History for KCEW - December, 2012

Change the Weather History Date:

Saturday, December 29, 2012

  Actual Average Record
Temperature  
Mean Temperature 50 °F -  
Max Temperature 62 °F 61 °F 75 °F (1990)
Min Temperature 37 °F 42 °F 24 °F (2010)
Degree Days  
Heating Degree Days 16    
Moisture  
Dew Point 39 °F    
Average Humidity 73    
Maximum Humidity 94    
Minimum Humidity 52    
Precipitation  
Precipitation 0.00 in - - ()
Sea Level Pressure  
Sea Level Pressure 30.10 in    
Wind  
Wind Speed 12 mph (NW)    
Max Wind Speed 18 mph    
Max Gust Speed 26 mph    
Visibility 10 miles    
Events      
Averages and records for this station are not official NWS values.
T = Trace of Precipitation, MM = Missing Value Source: NWS Daily Summary

Daily Weather History Graph

Daily Weather History Graph

Search for Another Location

Airport or City:

Trip Planner

Search our weather history database for the weather conditions in past years. The results will help you decide how hot, cold, wet, or windy it might be!

Date:

Astronomy

Dec. 29, 2012 Rise Set
Actual Time 6:43 AM CST 4:53 PM CST
Civil Twilight 6:16 AM CST 5:20 PM CST
Nautical Twilight 5:46 AM CST 5:50 PM CST
Astronomical Twilight 5:17 AM CST 6:19 PM CST
Moon 6:19 PM CST (12/29) 7:22 AM CST (12/29)
Length of Visible Light 11h 03m
Length of Day
10h 10m
Full, 98% of the Moon is Illuminated
Dec 29
Full
Jan 4
Last Quarter
Jan 11
New
Jan 18
First Quarter
Jan 26
Full

Hourly Weather History & Observations

Time (CST) Temp. Windchill Dew Point Humidity Pressure Visibility Wind Dir Wind Speed Gust Speed Precip Events Conditions
12:46 AM 62.6 °F - 60.8 °F 94% 29.79 in 10.0 mi WNW 10.4 mph - N/A   Overcast
12:53 AM 62.1 °F - 60.1 °F 93% 29.78 in 10.0 mi WNW 10.4 mph - N/A   Overcast
1:19 AM 62.6 °F - 59.0 °F 88% 29.81 in 10.0 mi WNW 12.7 mph 24.2 mph N/A   Mostly Cloudy
1:33 AM 60.8 °F - 57.2 °F 88% 29.82 in 5.0 mi NW 15.0 mph 20.7 mph N/A   Overcast
1:53 AM 60.1 °F - 57.0 °F 90% 29.83 in 8.0 mi NW 13.8 mph 21.9 mph N/A   Overcast
2:53 AM 55.0 °F - 51.1 °F 86% 29.87 in 10.0 mi WNW 18.4 mph 26.5 mph N/A   Overcast
3:53 AM 53.1 °F - 46.9 °F 80% 29.90 in 10.0 mi NW 12.7 mph 21.9 mph 0.00 in   Overcast
4:53 AM 51.1 °F - 46.0 °F 83% 29.95 in 10.0 mi NW 11.5 mph - N/A   Overcast
5:53 AM 48.9 °F - 41.0 °F 74% 30.00 in 10.0 mi NW 17.3 mph 23.0 mph N/A   Overcast
6:53 AM 46.9 °F - 39.9 °F 77% 30.05 in 10.0 mi NNW 11.5 mph 21.9 mph N/A   Overcast
7:53 AM 46.9 °F - 39.9 °F 77% 30.07 in 10.0 mi NNW 13.8 mph - N/A   Overcast
8:53 AM 46.0 °F 40.2 °F 37.9 °F 73% 30.12 in 10.0 mi NNW 12.7 mph - N/A   Overcast
9:53 AM 45.0 °F 37.9 °F 36.0 °F 71% 30.14 in 10.0 mi NNW 16.1 mph 21.9 mph N/A   Overcast
10:53 AM 44.1 °F 39.0 °F 36.0 °F 73% 30.14 in 10.0 mi NNW 9.2 mph 18.4 mph N/A   Overcast
11:53 AM 46.0 °F 39.6 °F 35.1 °F 66% 30.15 in 10.0 mi NW 15.0 mph 20.7 mph N/A   Overcast
12:53 PM 48.0 °F - 34.0 °F 58% 30.13 in 10.0 mi NW 9.2 mph 20.7 mph N/A   Mostly Cloudy
1:44 PM 50.0 °F - 33.8 °F 54% 30.14 in 10.0 mi NNW 10.4 mph - N/A   Mostly Cloudy
1:53 PM 48.9 °F - 33.1 °F 54% 30.13 in 10.0 mi NNW 9.2 mph 20.7 mph N/A   Scattered Clouds
2:53 PM 48.9 °F - 32.0 °F 52% 30.16 in 10.0 mi NW 13.8 mph - N/A   Clear
3:53 PM 48.0 °F - 32.0 °F 54% 30.18 in 10.0 mi NW 13.8 mph 20.7 mph N/A   Clear
5:53 PM 42.1 °F 39.2 °F 30.9 °F 65% 30.24 in 10.0 mi North 4.6 mph - N/A   Clear
6:53 PM 39.9 °F 36.7 °F 30.9 °F 70% 30.27 in 10.0 mi NNW 4.6 mph - N/A   Clear
7:53 PM 39.9 °F 35.1 °F 28.9 °F 65% 30.29 in 10.0 mi NNW 6.9 mph - N/A   Clear
8:53 PM 37.0 °F 31.6 °F 28.9 °F 73% 30.33 in 10.0 mi NW 6.9 mph - N/A   Clear
9:53 PM 37.0 °F 31.6 °F 28.9 °F 73% 30.34 in 10.0 mi NW 6.9 mph - N/A   Mostly Cloudy
10:53 PM 37.9 °F 32.7 °F 28.9 °F 70% 30.36 in 10.0 mi NW 6.9 mph - N/A   Overcast
11:24 PM 39.2 °F 34.2 °F 28.4 °F 65% 30.35 in 10.0 mi North 6.9 mph - N/A   Overcast
11:53 PM 37.9 °F 32.7 °F 27.0 °F 65% 30.36 in 10.0 mi North 6.9 mph - N/A   Overcast